Location: D�derode
(51.8092°N, 10.1065°E)
Time: 13:36:57
(UTC+00:00)

SL-24 DEB - Visible Passes

Search period start: 20 April 2021 00:00
Search period end: 30 April 2021 00:00
Orbit: 663 x 701 km, 92.0° (Epoch: 19 April)

Date Brightness Start Highest point End Pass type
(mag) Time Alt. Az. Time Alt. Az. Time Alt. Az.
20 Apr 5.6 21:18:32 25° E 21:19:01 25° ENE 21:22:49 10° NNE visible
20 Apr 4.9 22:57:00 46° W 22:57:00 46° W 23:01:20 10° NNW visible
21 Apr 4.4 21:55:27 54° E 21:55:39 54° E 22:00:10 10° N visible
21 Apr 6.0 23:33:55 21° W 23:34:03 21° W 23:37:36 10° NNW visible
22 Apr 6.0 20:53:54 17° E 20:54:54 18° ENE 20:58:03 10° NNE visible
22 Apr 4.3 22:32:22 67° WSW 22:32:29 67° W 22:37:06 10° N visible
23 Apr 5.0 21:30:49 36° E 21:31:24 38° ENE 21:35:40 10° N visible
23 Apr 5.5 23:09:16 30° W 23:09:33 30° W 23:13:38 10° NNW visible
24 Apr 6.3 20:29:16 11° E 20:30:49 13° ENE 20:32:58 10° NE visible
24 Apr 4.0 22:07:43 73° SSE 22:08:08 84° E 22:12:47 10° N visible
24 Apr 6.4 23:46:11 14° W 23:46:53 14° WNW 23:49:21 10° NW visible
25 Apr 5.5 21:06:10 24° E 21:07:14 27° ENE 21:11:05 10° NNE visible
25 Apr 4.9 22:44:38 41° WSW 22:45:06 43° W 22:49:32 10° NNW visible
26 Apr 4.4 21:43:04 50° ESE 21:43:52 58° E 21:48:24 10° N visible
26 Apr 6.0 23:21:32 19° W 23:22:19 20° W 23:25:44 10° NNW visible
27 Apr 5.9 20:41:31 16° E 20:43:05 19° ENE 20:46:20 10° NNE visible
27 Apr 4.4 22:19:58 54° SW 22:20:43 63° W 22:25:19 10° N visible
28 Apr 4.9 21:18:25 33° ESE 21:19:37 40° ENE 21:23:55 10° N visible
28 Apr 5.6 22:56:52 26° WSW 22:57:47 28° W 23:01:48 10° NNW visible
29 Apr 6.3 20:16:51 10° E 20:18:59 14° ENE 20:21:19 10° NE visible
29 Apr 4.1 21:55:18 54° S 21:56:22 89° E 22:01:00 10° N visible
29 Apr 6.5 23:33:46 12° W 23:35:08 13° WNW 23:37:21 10° NW visible
